Погода в Липне

Россия / Владимирская область     55°57′26″N   39°38′14″E
темп.,
°C
ветер,
м/с
пор.,
м/с
влажн.,
%
обл.,
%
осадки,
мм/ч
давл.,
гПа
погр.,
м
7 августа, вс
вс700:00+21ююз236291 0.0 101976
03:00+18ю23795 0.0 101854
06:00+18ююз25820 0.0 1018142
09:00+25ююз35510 0.0 1018494
12:00+30юз46373 0.0 10172111
15:00+28юз254461 0.0 1016843
18:00+25ю125381 0.0 101638
21:00+19с31089100 0.8 1018299
8 августа, пн
пн800:00+16с3898100 1.0 1019227
03:00+16ссв2797100 1.1 1020197
06:00+16ссв2696100 0.4 1021185
09:00+18св259191 0.6 1021315
12:00+19св248253 0.0 1022346
15:00+25в225432 0.1 10211212
18:00+24св235856 0.1 1020860
21:00+18св248878 0.8 102075
9 августа, вт
вт900:00+16ссв2695100 1.2 1021140
03:00+16св2797100 6.6 1021209
06:00+16в3996100 2.8 1020312
09:00+18всв3590100 3.4 1020375
12:00+23св2166100 0.0 1019861
15:00+21с2281100 1.0 101977
18:00+18ссв3796100 19.6 1019269
21:00+17с379893 20.3 1020336
10 августа, ср
ср1000:00+15с2698100 0.0 1019181
03:00+14с1299100 0.0 102065
06:00+15сз1498100 0.0 1020158
09:00+18ссз2485100 0.1 1020591
12:00+21сз2455100 0.5 10191304
15:00+23сз454198 0.5 10182405
18:00+19сз37675 0.3 1019423
21:00+14зсз310920 0.3 1020300
11 августа, чт
чт1100:00+12сз310977 0.0 1021272
03:00+13ссз412901 0.0 1021470
06:00+13ссз399217 0.0 1023432
09:00+19с47620 0.0 1023868
12:00+22с35430 0.0 10231816
15:00+23с34389 0.0 10232222
18:00+22ссз365030 0.0 1023453
21:00+15ссз226820 0.0 102313